| time (UTC) | temp C | wind direction | speed KPH | gust KPH | rain 1hr cm | rain 24hr cm | rain mn cm | humidity % | barometer mb |
| 20260902104039 | 17 | 330 | 0.0 | 4.8 | 0.00 | 0.00 | 0.00 | 84 | 1014.5 |
| 20260902103532 | 17 | 340 | 3.2 | 4.8 | 0.00 | 0.00 | 0.00 | 84 | 1014.5 |
| 20260902103026 | 17 | 343 | 3.2 | 4.8 | 0.00 | 0.00 | 0.00 | 84 | 1014.5 |
| 20260902102520 | 17 | 1 | 1.6 | 4.8 | 0.00 | 0.00 | 0.00 | 84 | 1014.5 |
| 20260902102013 | 17 | 343 | 3.2 | 4.8 | 0.00 | 0.00 | 0.00 | 84 | 1014.5 |
| 20260902101507 | 17 | 25 | 3.2 | 4.8 | 0.00 | 0.00 | 0.00 | 84 | 1014.5 |
| 20260902094935 | 17 | 349 | 3.2 | 3.2 | 0.00 | 0.00 | 0.00 | 83 | 1014.5 |
| 20260902094428 | 17 | 12 | 3.2 | 4.8 | 0.00 | 0.00 | 0.00 | 83 | 1014.5 |
| 20260902093921 | 17 | 26 | 3.2 | 6.4 | 0.00 | 0.00 | 0.00 | 83 | 1014.5 |
| 20260902093415 | 17 | 19 | 3.2 | 6.4 | 0.00 | 0.00 | 0.00 | 83 | 1014.5 |
| 20260902092908 | 17 | 27 | 3.2 | 6.4 | 0.00 | 0.00 | 0.00 | 83 | 1014.5 |
| 20260902092402 | 17 | 9 | 4.8 | 6.4 | 0.00 | 0.00 | 0.00 | 83 | 1014.5 |
| 20260902091856 | 17 | 16 | 3.2 | 4.8 | 0.00 | 0.00 | 0.00 | 83 | 1014.5 |
| 20260902091349 | 17 | 8 | 3.2 | 4.8 | 0.00 | 0.00 | 0.00 | 82 | 1014.5 |
| 20260902090843 | 17 | 4 | 3.2 | 6.4 | 0.00 | 0.00 | 0.00 | 82 | 1014.5 |
| 20260902090337 | 17 | 1 | 4.8 | 6.4 | 0.00 | 0.00 | 0.00 | 82 | 1014.5 |
| 20260902085830 | 17 | 5 | 3.2 | 4.8 | 0.00 | 0.00 | 0.00 | 82 | 1014.5 |
| 20260902085324 | 17 | 25 | 3.2 | 6.4 | 0.00 | 0.00 | 0.00 | 82 | 1014.5 |
| 20260902084817 | 17 | 8 | 3.2 | 6.4 | 0.00 | 0.00 | 0.00 | 82 | 1014.1 |
| 20260902084310 | 17 | 347 | 4.8 | 4.8 | 0.00 | 0.00 | 0.00 | 81 | 1014.5 |
| 20260902083804 | 17 | 36 | 1.6 | 6.4 | 0.00 | 0.00 | 0.00 | 81 | 1014.5 |
| 20260902083300 | 17 | 15 | 3.2 | 6.4 | 0.00 | 0.00 | 0.00 | 81 | 1014.5 |
| 20260902081738 | 17 | 3 | 3.2 | 6.4 | 0.00 | 0.00 | 0.00 | 80 | 1014.5 |
| 20260902081231 | 17 | 11 | 4.8 | 9.7 | 0.00 | 0.00 | 0.00 | 80 | 1014.5 |
| 20260902080725 | 17 | 18 | 6.4 | 9.7 | 0.00 | 0.00 | 0.00 | 80 | 1014.5 |
| 20260902075712 | 17 | 9 | 6.4 | 9.7 | 0.00 | 0.00 | 0.00 | 79 | 1014.5 |
| 20260902075206 | 17 | 18 | 6.4 | 9.7 | 0.00 | 0.00 | 0.00 | 79 | 1014.5 |
| 20260902074659 | 17 | 9 | 6.4 | 6.4 | 0.00 | 0.00 | 0.00 | 78 | 1014.5 |
| 20260902074153 | 17 | 5 | 3.2 | 6.4 | 0.00 | 0.00 | 0.00 | 77 | 1014.5 |
| 20260902073646 | 17 | 7 | 4.8 | 6.4 | 0.00 | 0.00 | 0.00 | 77 | 1014.5 |
| 20260902073140 | 17 | 11 | 3.2 | 6.4 | 0.00 | 0.00 | 0.00 | 77 | 1014.5 |
| 20260902072634 | 17 | 9 | 4.8 | 6.4 | 0.00 | 0.00 | 0.00 | 77 | 1014.5 |
| 20260902072127 | 17 | 22 | 3.2 | 6.4 | 0.00 | 0.00 | 0.00 | 77 | 1014.1 |
| 20260902071621 | 18 | 17 | 6.4 | 6.4 | 0.00 | 0.00 | 0.00 | 77 | 1014.1 |
| 20260902071113 | 18 | 12 | 4.8 | 6.4 | 0.00 | 0.00 | 0.00 | 77 | 1014.1 |
| 20260902070607 | 18 | 0 | 3.2 | 6.4 | 0.00 | 0.00 | 0.00 | 76 | 1014.1 |
| 20260902065555 | 18 | 14 | 4.8 | 9.7 | 0.00 | 0.00 | 0.00 | 76 | 1014.1 |
| 20260902064542 | 18 | 10 | 4.8 | 6.4 | 0.00 | 0.00 | 0.00 | 74 | 1013.8 |
| 20260902064035 | 18 | 355 | 3.2 | 4.8 | 0.00 | 0.00 | 0.00 | 74 | 1013.8 |
| 20260902063528 | 18 | 28 | 3.2 | 6.4 | 0.00 | 0.00 | 0.00 | 74 | 1014.1 |
| 20260902063022 | 18 | 14 | 3.2 | 6.4 | 0.00 | 0.00 | 0.00 | 73 | 1014.1 |
| 20260902062516 | 18 | 19 | 4.8 | 6.4 | 0.00 | 0.00 | 0.00 | 73 | 1014.1 |
| 20260902062009 | 18 | 19 | 4.8 | 4.8 | 0.00 | 0.00 | 0.00 | 73 | 1014.1 |
| 20260902061503 | 18 | 352 | 1.6 | 6.4 | 0.00 | 0.00 | 0.00 | 73 | 1014.1 |
| 20260902060450 | 17 | 0 | 1.6 | 4.8 | 0.00 | 0.00 | 0.00 | 73 | 1014.1 |
| 20260902055437 | 17 | 342 | 1.6 | 3.2 | 0.00 | 0.00 | 0.00 | 73 | 1013.8 |
| 20260902054930 | 18 | 337 | 1.6 | 3.2 | 0.00 | 0.00 | 0.00 | 74 | 1013.8 |
| 20260902054424 | 18 | 327 | 1.6 | 3.2 | 0.00 | 0.00 | 0.00 | 74 | 1013.8 |
| 20260902053917 | 18 | 334 | 1.6 | 3.2 | 0.00 | 0.00 | 0.00 | 74 | 1013.8 |
| 20260902053411 | 18 | 344 | 1.6 | 3.2 | 0.00 | 0.00 | 0.00 | 74 | 1013.8 |
| 20260902052359 | 18 | 333 | 1.6 | 4.8 | 0.00 | 0.00 | 0.00 | 74 | 1013.8 |
| 20260902051851 | 18 | 330 | 1.6 | 6.4 | 0.00 | 0.00 | 0.00 | 74 | 1013.8 |
| 20260902051345 | 18 | 16 | 4.8 | 6.4 | 0.00 | 0.00 | 0.00 | 74 | 1013.8 |
| 20260902050333 | 18 | 357 | 1.6 | 4.8 | 0.00 | 0.00 | 0.00 | 77 | 1013.8 |
| 20260902044306 | 18 | 335 | 1.6 | 3.2 | 0.00 | 0.00 | 0.00 | 76 | 1013.8 |
| 20260902043252 | 18 | 340 | 0.0 | 3.2 | 0.00 | 0.00 | 0.00 | 76 | 1013.4 |
| 20260902042746 | 18 | 328 | 1.6 | 1.6 | 0.00 | 0.00 | 0.00 | 76 | 1013.4 |
| 20260902042240 | 18 | 321 | 0.0 | 3.2 | 0.00 | 0.00 | 0.00 | 77 | 1013.4 |
| 20260902041734 | 18 | 329 | 0.0 | 3.2 | 0.00 | 0.00 | 0.00 | 77 | 1013.4 |
| 20260902041227 | 18 | 318 | 1.6 | 3.2 | 0.00 | 0.00 | 0.00 | 77 | 1013.4 |
| 20260902040721 | 19 | 307 | 0.0 | 4.8 | 0.00 | 0.00 | 0.00 | 77 | 1013.4 |
| 20260902040214 | 19 | 320 | 3.2 | 4.8 | 0.00 | 0.00 | 0.00 | 76 | 1013.4 |
| 20260902035202 | 19 | 322 | 0.0 | 3.2 | 0.00 | 0.00 | 0.00 | 76 | 1013.1 |
| 20260902034655 | 19 | 308 | 1.6 | 1.6 | 0.00 | 0.00 | 0.00 | 76 | 1013.1 |
| 20260902034148 | 19 | 292 | 0.0 | 1.6 | 0.00 | 0.00 | 0.00 | 76 | 1012.8 |
| 20260902033642 | 19 | 288 | 0.0 | 1.6 | 0.00 | 0.00 | 0.00 | 75 | 1012.8 |
| 20260902033136 | 20 | 259 | 0.0 | 3.2 | 0.00 | 0.00 | 0.00 | 75 | 1012.8 |
| 20260902032629 | 20 | 259 | 0.0 | 3.2 | 0.00 | 0.00 | 0.00 | 75 | 1012.8 |
| 20260902032122 | 20 | 250 | 1.6 | 4.8 | 0.00 | 0.00 | 0.00 | 75 | 1012.8 |
| 20260902031616 | 20 | 257 | 1.6 | 4.8 | 0.00 | 0.00 | 0.00 | 74 | 1012.8 |
| 20260902031109 | 20 | 274 | 0.0 | 4.8 | 0.00 | 0.00 | 0.00 | 74 | 1012.8 |
| 20260902030056 | 20 | 242 | 6.4 | 6.4 | 0.00 | 0.00 | 0.00 | 74 | 1012.8 |
| 20260902025550 | 20 | 245 | 3.2 | 6.4 | 0.00 | 0.00 | 0.00 | 73 | 1012.4 |
| 20260902025044 | 20 | 245 | 3.2 | 6.4 | 0.00 | 0.00 | 0.00 | 73 | 1012.8 |
| 20260902024031 | 20 | 252 | 6.4 | 9.7 | 0.00 | 0.00 | 0.00 | 72 | 1012.8 |
| 20260902023524 | 20 | 226 | 4.8 | 6.4 | 0.00 | 0.00 | 0.00 | 72 | 1012.4 |
| 20260902023018 | 20 | 281 | 3.2 | 11.3 | 0.00 | 0.00 | 0.00 | 72 | 1012.4 |
| 20260902022511 | 20 | 257 | 4.8 | 11.3 | 0.00 | 0.00 | 0.00 | 72 | 1012.4 |
| 20260902022005 | 20 | 245 | 4.8 | 9.7 | 0.00 | 0.00 | 0.00 | 71 | 1012.4 |
| 20260902021458 | 20 | 277 | 4.8 | 6.4 | 0.00 | 0.00 | 0.00 | 71 | 1012.4 |
| 20260902020951 | 21 | 266 | 3.2 | 12.9 | 0.00 | 0.00 | 0.00 | 71 | 1012.4 |
| 20260902020445 | 21 | 244 | 8.0 | 12.9 | 0.00 | 0.00 | 0.00 | 71 | 1012.4 |
| 20260902015938 | 21 | 230 | 6.4 | 9.7 | 0.00 | 0.00 | 0.00 | 71 | 1012.4 |
| 20260902015432 | 21 | 239 | 6.4 | 11.3 | 0.00 | 0.00 | 0.00 | 70 | 1012.4 |
| 20260902014926 | 21 | 200 | 4.8 | 11.3 | 0.00 | 0.00 | 0.00 | 71 | 1012.4 |
| 20260902014419 | 21 | 241 | 6.4 | 11.3 | 0.00 | 0.00 | 0.00 | 70 | 1012.4 |
| 20260902013913 | 21 | 245 | 4.8 | 14.5 | 0.00 | 0.00 | 0.00 | 70 | 1012.8 |
| 20260902012900 | 21 | 270 | 3.2 | 16.1 | 0.00 | 0.00 | 0.00 | 71 | 1012.4 |
| 20260902012355 | 21 | 199 | 8.0 | 16.1 | 0.00 | 0.00 | 0.00 | 71 | 1012.8 |
| 20260902011341 | 22 | 255 | 9.7 | 12.9 | 0.00 | 0.00 | 0.00 | 71 | 1012.4 |
| 20260902010833 | 22 | 216 | 8.0 | 12.9 | 0.00 | 0.00 | 0.00 | 70 | 1012.4 |
| 20260902010327 | 21 | 258 | 6.4 | 14.5 | 0.00 | 0.00 | 0.00 | 71 | 1012.8 |
| 20260902005821 | 22 | 258 | 9.7 | 14.5 | 0.00 | 0.00 | 0.00 | 71 | 1012.8 |
| 20260902005314 | 22 | 208 | 9.7 | 14.5 | 0.00 | 0.00 | 0.00 | 70 | 1012.8 |
| 20260902003755 | 22 | 243 | 11.3 | 17.7 | 0.00 | 0.00 | 0.00 | 69 | 1012.8 |
| 20260902002741 | 22 | 224 | 6.4 | 20.9 | 0.00 | 0.00 | 0.00 | 71 | 1012.8 |
| 20260902002235 | 22 | 231 | 11.3 | 20.9 | 0.00 | 0.00 | 0.00 | 69 | 1012.8 |
| 20260902001729 | 22 | 234 | 11.3 | 20.9 | 0.00 | 0.00 | 0.00 | 70 | 1012.8 |
| 20260902001222 | 22 | 248 | 9.7 | 16.1 | 0.00 | 0.00 | 0.00 | 69 | 1012.8 |
| 20260901235702 | 22 | 247 | 9.7 | 22.5 | 0.00 | 0.00 | 0.00 | 71 | 1012.8 |
| 20260901235156 | 22 | 226 | 17.7 | 22.5 | 0.00 | 0.00 | 0.00 | 71 | 1013.1 |
| 20260901234649 | 22 | 267 | 9.7 | 20.9 | 0.00 | 0.00 | 0.00 | 71 | 1013.1 |
| 20260901234142 | 22 | 274 | 6.4 | 20.9 | 0.00 | 0.00 | 0.00 | 71 | 1013.1 |
| 20260901233636 | 22 | 227 | 8.0 | 20.9 | 0.00 | 0.00 | 0.00 | 71 | 1013.1 |
| 20260901233130 | 22 | 226 | 16.1 | 20.9 | 0.00 | 0.00 | 0.00 | 68 | 1013.1 |
| 20260901231610 | 22 | 230 | 19.3 | 22.5 | 0.00 | 0.00 | 0.00 | 69 | 1013.1 |
| 20260901231103 | 22 | 276 | 3.2 | 22.5 | 0.00 | 0.00 | 0.00 | 72 | 1013.1 |
| 20260901230558 | 22 | 204 | 9.7 | 25.7 | 0.00 | 0.00 | 0.00 | 71 | 1013.1 |
| 20260901230050 | 22 | 268 | 12.9 | 25.7 | 0.00 | 0.00 | 0.00 | 71 | 1013.4 |
| 20260901225038 | 22 | 260 | 9.7 | 22.5 | 0.00 | 0.00 | 0.00 | 71 | 1013.4 |
| 20260901224530 | 22 | 257 | 17.7 | 22.5 | 0.00 | 0.00 | 0.00 | 70 | 1013.4 |
| 20260901224024 | 22 | 235 | 12.9 | 25.7 | 0.00 | 0.00 | 0.00 | 71 | 1013.4 |
| 20260901223518 | 22 | 210 | 14.5 | 25.7 | 0.00 | 0.00 | 0.00 | 72 | 1013.4 |
| 20260901223011 | 22 | 225 | 16.1 | 22.5 | 0.00 | 0.00 | 0.00 | 71 | 1013.4 |
| 20260901222504 | 22 | 230 | 11.3 | 24.1 | 0.00 | 0.00 | 0.00 | 70 | 1013.4 |
| 20260901221958 | 23 | 251 | 12.9 | 25.7 | 0.00 | 0.00 | 0.00 | 70 | 1013.4 |
| 20260901221452 | 23 | 237 | 12.9 | 25.7 | 0.00 | 0.00 | 0.00 | 69 | 1013.4 |
| 20260901220945 | 23 | 226 | 17.7 | 25.7 | 0.00 | 0.00 | 0.00 | 69 | 1013.4 |
| 20260901215931 | 23 | 217 | 17.7 | 22.5 | 0.00 | 0.00 | 0.00 | 68 | 1013.4 |
| 20260901215425 | 23 | 222 | 17.7 | 22.5 | 0.00 | 0.00 | 0.00 | 68 | 1013.8 |
| 20260901214919 | 23 | 274 | 9.7 | 22.5 | 0.00 | 0.00 | 0.00 | 65 | 1013.4 |
| 20260901214412 | 23 | 257 | 14.5 | 22.5 | 0.00 | 0.00 | 0.00 | 67 | 1013.8 |
| 20260901213906 | 23 | 255 | 16.1 | 17.7 | 0.00 | 0.00 | 0.00 | 65 | 1013.8 |
| 20260901212346 | 23 | 265 | 8.0 | 22.5 | 0.00 | 0.00 | 0.00 | 68 | 1013.8 |
| 20260901211840 | 23 | 226 | 17.7 | 22.5 | 0.00 | 0.00 | 0.00 | 65 | 1013.8 |
| 20260901211334 | 23 | 308 | 8.0 | 22.5 | 0.00 | 0.00 | 0.00 | 67 | 1013.8 |
| 20260901210826 | 23 | 244 | 9.7 | 22.5 | 0.00 | 0.00 | 0.00 | 68 | 1013.8 |
| 20260901210320 | 23 | 268 | 12.9 | 20.9 | 0.00 | 0.00 | 0.00 | 66 | 1013.8 |
| 20260901205814 | 23 | 244 | 11.3 | 22.5 | 0.00 | 0.00 | 0.00 | 65 | 1013.8 |
| 20260901204801 | 23 | 284 | 9.7 | 17.7 | 0.00 | 0.00 | 0.00 | 66 | 1014.1 |
| 20260901204254 | 23 | 238 | 11.3 | 17.7 | 0.00 | 0.00 | 0.00 | 65 | 1014.1 |
| 20260901203241 | 23 | 271 | 9.7 | 20.9 | 0.00 | 0.00 | 0.00 | 68 | 1014.1 |
| 20260901202734 | 23 | 241 | 9.7 | 20.9 | 0.00 | 0.00 | 0.00 | 67 | 1014.1 |
| 20260901202228 | 23 | 266 | 8.0 | 16.1 | 0.00 | 0.00 | 0.00 | 67 | 1014.5 |
| 20260901201722 | 23 | 210 | 11.3 | 22.5 | 0.00 | 0.00 | 0.00 | 68 | 1014.5 |
| 20260901200708 | 23 | 256 | 8.0 | 16.1 | 0.00 | 0.00 | 0.00 | 69 | 1014.5 |
| 20260901200202 | 22 | 181 | 9.7 | 17.7 | 0.00 | 0.00 | 0.00 | 70 | 1014.5 |
| 20260901195655 | 23 | 236 | 9.7 | 17.7 | 0.00 | 0.00 | 0.00 | 69 | 1014.5 |
| 20260901195149 | 23 | 178 | 9.7 | 22.5 | 0.00 | 0.00 | 0.00 | 69 | 1014.5 |
| 20260901194136 | 23 | 259 | 14.5 | 16.1 | 0.00 | 0.00 | 0.00 | 68 | 1014.5 |
| 20260901193629 | 23 | 320 | 9.7 | 16.1 | 0.00 | 0.00 | 0.00 | 68 | 1014.8 |
| 20260901193123 | 23 | 248 | 8.0 | 17.7 | 0.00 | 0.00 | 0.00 | 68 | 1014.8 |
| 20260901192616 | 23 | 279 | 12.9 | 17.7 | 0.00 | 0.00 | 0.00 | 69 | 1014.8 |
| 20260901192110 | 22 | 211 | 6.4 | 17.7 | 0.00 | 0.00 | 0.00 | 70 | 1014.8 |
| 20260901191057 | 22 | 251 | 11.3 | 17.7 | 0.00 | 0.00 | 0.00 | 70 | 1014.8 |
| 20260901190044 | 23 | 252 | 11.3 | 16.1 | 0.00 | 0.00 | 0.00 | 69 | 1014.8 |
| 20260901185031 | 23 | 224 | 6.4 | 17.7 | 0.00 | 0.00 | 0.00 | 69 | 1014.8 |
| 20260901184524 | 23 | 192 | 9.7 | 17.7 | 0.00 | 0.00 | 0.00 | 69 | 1014.8 |
| 20260901184017 | 23 | 171 | 6.4 | 14.5 | 0.00 | 0.00 | 0.00 | 69 | 1014.8 |
| 20260901183511 | 22 | 256 | 8.0 | 16.1 | 0.00 | 0.00 | 0.00 | 69 | 1014.8 |
| 20260901183005 | 23 | 230 | 12.9 | 16.1 | 0.00 | 0.00 | 0.00 | 69 | 1014.8 |
| 20260901182459 | 23 | 249 | 8.0 | 16.1 | 0.00 | 0.00 | 0.00 | 68 | 1014.8 |
| 20260901181951 | 22 | 227 | 3.2 | 16.1 | 0.00 | 0.00 | 0.00 | 70 | 1014.8 |
| 20260901181445 | 22 | 199 | 6.4 | 12.9 | 0.00 | 0.00 | 0.00 | 70 | 1014.8 |
| 20260901180432 | 22 | 229 | 3.2 | 16.1 | 0.00 | 0.00 | 0.00 | 72 | 1014.8 |
| 20260901175926 | 22 | 253 | 8.0 | 16.1 | 0.00 | 0.00 | 0.00 | 71 | 1014.8 |
| 20260901175419 | 22 | 235 | 4.8 | 12.9 | 0.00 | 0.00 | 0.00 | 71 | 1014.8 |
| 20260901174913 | 22 | 178 | 11.3 | 12.9 | 0.00 | 0.00 | 0.00 | 70 | 1014.8 |
| 20260901174406 | 22 | 162 | 3.2 | 12.9 | 0.00 | 0.00 | 0.00 | 72 | 1014.8 |
| 20260901173859 | 22 | 220 | 9.7 | 12.9 | 0.00 | 0.00 | 0.00 | 70 | 1014.8 |
| 20260901173353 | 22 | 270 | 4.8 | 12.9 | 0.00 | 0.00 | 0.00 | 72 | 1014.8 |
| 20260901172847 | 22 | 214 | 1.6 | 12.9 | 0.00 | 0.00 | 0.00 | 74 | 1014.8 |
| 20260901172340 | 21 | 241 | 3.2 | 14.5 | 0.00 | 0.00 | 0.00 | 73 | 1014.8 |
| 20260901171834 | 22 | 218 | 11.3 | 14.5 | 0.00 | 0.00 | 0.00 | 71 | 1014.8 |
| 20260901165808 | 22 | 111 | 3.2 | 9.7 | 0.00 | 0.00 | 0.00 | 68 | 1014.5 |
| 20260901165301 | 22 | 133 | 3.2 | 6.4 | 0.00 | 0.00 | 0.00 | 69 | 1014.8 |
| 20260901164754 | 22 | 153 | 1.6 | 9.7 | 0.00 | 0.00 | 0.00 | 71 | 1014.8 |
| 20260901164248 | 21 | 62 | 6.4 | 9.7 | 0.00 | 0.00 | 0.00 | 72 | 1014.5 |
| 20260901162223 | 21 | 183 | 4.8 | 9.7 | 0.00 | 0.00 | 0.00 | 75 | 1014.5 |
| 20260901161715 | 20 | 208 | 3.2 | 9.7 | 0.00 | 0.00 | 0.00 | 76 | 1014.5 |
| 20260901161209 | 20 | 190 | 4.8 | 9.7 | 0.00 | 0.00 | 0.00 | 77 | 1014.8 |
| 20260901160704 | 20 | 290 | 0.0 | 4.8 | 0.00 | 0.00 | 0.00 | 77 | 1014.8 |
| 20260901160156 | 20 | 297 | 1.6 | 4.8 | 0.00 | 0.00 | 0.00 | 79 | 1014.5 |
| 20260901155650 | 20 | 264 | 3.2 | 4.8 | 0.00 | 0.00 | 0.00 | 79 | 1014.8 |
| 20260901155144 | 20 | 283 | 3.2 | 6.4 | 0.00 | 0.00 | 0.00 | 80 | 1014.8 |
| 20260901154637 | 20 | 279 | 0.0 | 6.4 | 0.00 | 0.00 | 0.00 | 81 | 1014.5 |
| 20260901153624 | 19 | 276 | 3.2 | 4.8 | 0.00 | 0.00 | 0.00 | 81 | 1014.8 |
| 20260901153117 | 19 | 269 | 3.2 | 4.8 | 0.00 | 0.00 | 0.00 | 81 | 1014.5 |
| 20260901152104 | 19 | 300 | 1.6 | 4.8 | 0.00 | 0.00 | 0.00 | 81 | 1014.5 |
| 20260901151558 | 19 | 264 | 0.0 | 1.6 | 0.00 | 0.00 | 0.00 | 81 | 1014.1 |
| 20260901151052 | 19 | 319 | 0.0 | 1.6 | 0.00 | 0.00 | 0.00 | 82 | 1014.5 |
| 20260901150038 | 19 | 319 | 0.0 | 1.6 | 0.00 | 0.00 | 0.00 | 83 | 1014.1 |
| 20260901145532 | 18 | 319 | 0.0 | 3.2 | 0.00 | 0.00 | 0.00 | 84 | 1014.1 |
| 20260901145025 | 18 | 296 | 1.6 | 3.2 | 0.00 | 0.00 | 0.00 | 84 | 1014.1 |
| 20260901144518 | 18 | 310 | 1.6 | 3.2 | 0.00 | 0.00 | 0.00 | 85 | 1014.1 |
| 20260901144012 | 17 | 312 | 3.2 | 3.2 | 0.00 | 0.00 | 0.00 | 85 | 1013.8 |
| 20260901143506 | 17 | 322 | 1.6 | 3.2 | 0.00 | 0.00 | 0.00 | 86 | 1013.8 |
| 20260901142959 | 17 | 325 | 1.6 | 3.2 | 0.00 | 0.00 | 0.00 | 86 | 1013.8 |
| 20260901142453 | 17 | 328 | 1.6 | 3.2 | 0.00 | 0.00 | 0.00 | 86 | 1013.8 |
| 20260901141946 | 17 | 341 | 1.6 | 3.2 | 0.00 | 0.00 | 0.00 | 87 | 1013.4 |
| 20260901141439 | 17 | 332 | 0.0 | 3.2 | 0.00 | 0.00 | 0.00 | 87 | 1013.4 |
| 20260901140933 | 17 | 336 | 0.0 | 3.2 | 0.00 | 0.00 | 0.00 | 88 | 1013.4 |
| 20260901135920 | 16 | 355 | 3.2 | 4.8 | 0.00 | 0.00 | 0.00 | 89 | 1013.4 |
| 20260901135414 | 16 | 15 | 3.2 | 4.8 | 0.00 | 0.00 | 0.00 | 90 | 1013.4 |
| 20260901134907 | 16 | 351 | 1.6 | 3.2 | 0.00 | 0.00 | 0.00 | 90 | 1013.4 |
| 20260901134401 | 16 | 345 | 3.2 | 3.2 | 0.00 | 0.00 | 0.00 | 90 | 1013.4 |
| 20260901133854 | 16 | 323 | 0.0 | 3.2 | 0.00 | 0.00 | 0.00 | 90 | 1013.4 |
| 20260901133347 | 16 | 333 | 1.6 | 3.2 | 0.00 | 0.00 | 0.00 | 90 | 1013.4 |
| 20260901132841 | 16 | 312 | 1.6 | 4.8 | 0.00 | 0.00 | 0.00 | 90 | 1013.4 |
| 20260901132335 | 16 | 331 | 3.2 | 4.8 | 0.00 | 0.00 | 0.00 | 90 | 1013.4 |
| 20260901131828 | 16 | 342 | 1.6 | 4.8 | 0.00 | 0.00 | 0.00 | 90 | 1013.4 |
| 20260901131322 | 16 | 328 | 3.2 | 4.8 | 0.00 | 0.00 | 0.00 | 90 | 1013.4 |
| 20260901130815 | 16 | 334 | 1.6 | 4.8 | 0.00 | 0.00 | 0.00 | 90 | 1013.1 |
| 20260901130308 | 16 | 323 | 1.6 | 4.8 | 0.00 | 0.00 | 0.00 | 90 | 1013.1 |
| 20260901125802 | 16 | 326 | 3.2 | 4.8 | 0.00 | 0.00 | 0.00 | 90 | 1013.1 |
| 20260901124750 | 16 | 315 | 1.6 | 1.6 | 0.00 | 0.00 | 0.00 | 90 | 1013.1 |
| 20260901124242 | 16 | 307 | 0.0 | 1.6 | 0.00 | 0.00 | 0.00 | 90 | 1013.1 |
| 20260901123230 | 16 | 328 | 1.6 | 3.2 | 0.00 | 0.00 | 0.00 | 90 | 1013.1 |
| 20260901122723 | 16 | 321 | 0.0 | 3.2 | 0.00 | 0.00 | 0.00 | 90 | 1013.1 |
| 20260901122217 | 16 | 317 | 0.0 | 3.2 | 0.00 | 0.00 | 0.00 | 90 | 1013.1 |
| 20260901121710 | 16 | 328 | 1.6 | 3.2 | 0.00 | 0.00 | 0.00 | 90 | 1013.4 |
| 20260901121203 | 16 | 340 | 1.6 | 4.8 | 0.00 | 0.00 | 0.00 | 90 | 1013.1 |
| 20260901120657 | 16 | 342 | 3.2 | 4.8 | 0.00 | 0.00 | 0.00 | 90 | 1013.1 |
| 20260901120151 | 16 | 328 | 1.6 | 4.8 | 0.00 | 0.00 | 0.00 | 89 | 1013.1 |
| 20260901115647 | 16 | 332 | 3.2 | 3.2 | 0.00 | 0.00 | 0.00 | 89 | 1013.1 |
| 20260901115138 | 16 | 345 | 3.2 | 4.8 | 0.00 | 0.00 | 0.00 | 89 | 1013.1 |
| 20260901114632 | 16 | 323 | 1.6 | 4.8 | 0.00 | 0.00 | 0.00 | 89 | 1013.1 |
| 20260901114125 | 16 | 328 | 3.2 | 4.8 | 0.00 | 0.00 | 0.00 | 89 | 1013.1 |
| 20260901113618 | 16 | 328 | 3.2 | 4.8 | 0.00 | 0.00 | 0.00 | 89 | 1013.1 |
| 20260901113112 | 16 | 333 | 0.0 | 1.6 | 0.00 | 0.00 | 0.00 | 89 | 1013.1 |
| 20260901112607 | 16 | 333 | 1.6 | 1.6 | 0.00 | 0.00 | 0.00 | 89 | 1013.1 |
| 20260901112059 | 16 | 331 | 1.6 | 3.2 | 0.00 | 0.00 | 0.00 | 89 | 1013.1 |
| 20260901111553 | 16 | 332 | 0.0 | 3.2 | 0.00 | 0.00 | 0.00 | 89 | 1013.1 |
| 20260901111046 | 16 | 332 | 0.0 | 1.6 | 0.00 | 0.00 | 0.00 | 89 | 1013.1 |
| 20260901110033 | 16 | 329 | 1.6 | 3.2 | 0.00 | 0.00 | 0.00 | 89 | 1013.1 |
| 20260901105021 | 16 | 341 | 1.6 | 3.2 | 0.00 | 0.00 | 0.00 | 89 | 1013.1 |
| 20260901104513 | 16 | 339 | 1.6 | 3.2 | 0.00 | 0.00 | 0.00 | 89 | 1013.1 |